Weather History for Cincinnati, OH

Change the Weather History Date:

Thursday, December 5, 2013

  Actual Average Record
Temperature  
Mean Temperature 48 °F -  
Max Temperature 62 °F 46 °F 71 °F (2001)
Min Temperature 33 °F 30 °F 13 °F (1991)
Degree Days  
Heating Degree Days 18    
Moisture  
Dew Point 47 °F    
Average Humidity 87    
Maximum Humidity 100    
Minimum Humidity 71    
Precipitation  
Precipitation 1.05 in - - ()
Sea Level Pressure  
Sea Level Pressure 29.96 in    
Wind  
Wind Speed 9 mph (WNW)    
Max Wind Speed 18 mph    
Max Gust Speed 24 mph    
Visibility 7 miles    
Events Rain    
Averages and records for this station are not official NWS values.
T = Trace of Precipitation, MM = Missing Value Source: NWS Daily Summary

Daily Weather History Graph

Daily Weather History Graph

Search for Another Location

Airport:

Trip Planner

Search our weather history database for the weather conditions in past years. The results will help you decide how hot, cold, wet, or windy it might be!

Date:

Astronomy

Dec. 05, 2013 Rise Set
Actual Time 7:41 AM EST 5:14 PM EST
Civil Twilight 7:12 AM EST 5:44 PM EST
Nautical Twilight 6:38 AM EST 6:17 PM EST
Astronomical Twilight 6:06 AM EST 6:50 PM EST
Moon 10:01 AM EST (12/5) 8:33 PM EST (12/5)
Length of Visible Light 10h 32m
Length of Day
9h 33m
Waxing Crescent, 10% of the Moon is Illuminated
Dec 5
Waxing Crescent
Dec 9
First Quarter
Dec 17
Full
Dec 25
Last Quarter
Jan 1
New

Hourly Weather History & Observations

Time (EST) Temp. Windchill Dew Point Humidity Pressure Visibility Wind Dir Wind Speed Gust Speed Precip Events Conditions
12:53 AM 61.0 °F - 55.9 °F 83% 29.79 in 10.0 mi SSW 13.8 mph - N/A   Partly Cloudy
1:53 AM 61.0 °F - 55.9 °F 83% 29.79 in 9.0 mi South 11.5 mph - N/A   Clear
2:53 AM 61.0 °F - 55.9 °F 83% 29.80 in 8.0 mi SSW 10.4 mph - N/A   Partly Cloudy
3:53 AM 62.1 °F - 57.9 °F 86% 29.79 in 8.0 mi South 10.4 mph - N/A   Mostly Cloudy
4:53 AM 62.1 °F - 57.9 °F 86% 29.79 in 6.0 mi SSW 6.9 mph - 0.01 in Rain Light Rain
5:11 AM 60.8 °F - 59.0 °F 94% 29.81 in 1.8 mi WNW 8.1 mph - 0.12 in Rain Heavy Rain
5:24 AM 60.8 °F - 60.8 °F 100% 29.81 in 0.8 mi Calm Calm - 0.43 in Rain Heavy Rain
5:32 AM 60.8 °F - 60.8 °F 100% 29.80 in 2.0 mi SSE 3.5 mph - 0.45 in Rain Rain
5:41 AM 60.8 °F - 60.8 °F 100% 29.81 in 2.5 mi SSW 5.8 mph - 0.47 in Rain Light Rain
5:53 AM 62.1 °F - 60.1 °F 93% 29.81 in 2.5 mi SSW 11.5 mph - 0.52 in Rain Rain
6:05 AM 60.8 °F - 60.8 °F 100% 29.81 in 3.0 mi SSW 8.1 mph - 0.03 in Rain Light Rain
6:32 AM 62.6 °F - 60.8 °F 94% 29.82 in 1.8 mi SSW 9.2 mph - 0.18 in Rain Heavy Rain
6:48 AM 62.6 °F - 60.8 °F 94% 29.83 in 2.5 mi SSW 13.8 mph - 0.27 in Rain Rain
6:53 AM 62.1 °F - 61.0 °F 96% 29.82 in 3.0 mi SW 8.1 mph - 0.29 in Rain Rain
7:53 AM 61.0 °F - 60.1 °F 97% 29.83 in 4.0 mi Calm Calm - 0.06 in Rain Light Rain
8:06 AM 60.8 °F - 60.8 °F 100% 29.84 in 1.5 mi WSW 4.6 mph - 0.03 in Rain Light Rain
8:32 AM 60.8 °F - 57.2 °F 88% 29.88 in 2.5 mi NW 12.7 mph 21.9 mph 0.09 in Rain Rain
8:40 AM 57.2 °F - 55.4 °F 94% 29.90 in 5.0 mi WNW 18.4 mph 24.2 mph 0.09 in Rain Light Rain
8:53 AM 55.0 °F - 52.0 °F 89% 29.90 in 7.0 mi NW 12.7 mph 20.7 mph 0.09 in   Overcast
9:44 AM 53.6 °F - 50.0 °F 88% 29.93 in 5.0 mi NNW 4.6 mph - N/A   Overcast
9:53 AM 54.0 °F - 50.0 °F 86% 29.94 in 5.0 mi NW 3.5 mph - N/A   Overcast
10:06 AM 53.6 °F - 48.2 °F 82% 29.94 in 5.0 mi NW 4.6 mph - N/A   Overcast
10:18 AM 53.6 °F - 48.2 °F 82% 29.94 in 6.0 mi NNW 6.9 mph - N/A   Haze
10:53 AM 52.0 °F - 43.0 °F 71% 29.96 in 10.0 mi NW 5.8 mph - N/A   Overcast
11:53 AM 51.1 °F - 44.1 °F 77% 29.98 in 9.0 mi West 6.9 mph - 0.00 in Rain Light Rain
12:14 PM 51.8 °F - 44.6 °F 76% 29.98 in 9.0 mi West 4.6 mph - 0.00 in Rain Light Rain
12:53 PM 48.9 °F - 44.1 °F 83% 29.99 in 7.0 mi NW 8.1 mph - 0.01 in Rain Light Rain
1:53 PM 46.9 °F - 41.0 °F 80% 29.99 in 10.0 mi NNW 10.4 mph - 0.00 in   Overcast
2:53 PM 44.1 °F 39.0 °F 36.0 °F 73% 29.99 in 10.0 mi NNW 9.2 mph - 0.00 in   Overcast
3:53 PM 42.1 °F 35.2 °F 34.0 °F 73% 30.04 in 10.0 mi NNW 12.7 mph - N/A   Overcast
4:53 PM 39.9 °F 33.9 °F 35.1 °F 83% 30.09 in 7.0 mi NNW 9.2 mph - 0.01 in Rain Light Rain
5:34 PM 37.4 °F 31.4 °F 33.8 °F 87% 30.12 in 9.0 mi NNW 8.1 mph 17.3 mph 0.01 in Rain Light Rain
5:45 PM 37.4 °F 32.1 °F 33.8 °F 87% 30.11 in 10.0 mi NNW 6.9 mph - 0.01 in Rain Light Rain
5:53 PM 37.9 °F 32.7 °F 34.0 °F 86% 30.11 in 9.0 mi North 6.9 mph - 0.01 in Rain Light Rain
6:53 PM 37.0 °F 31.6 °F 33.1 °F 86% 30.09 in 10.0 mi NNW 6.9 mph - 0.04 in   Overcast
7:53 PM 37.0 °F 32.4 °F 33.1 °F 86% 30.09 in 10.0 mi NNE 5.8 mph - 0.00 in Rain Light Rain
8:31 PM 35.6 °F 29.2 °F 33.8 °F 93% 30.13 in 9.0 mi NW 8.1 mph - 0.01 in Rain Light Rain
8:45 PM 35.6 °F 27.5 °F 32.0 °F 87% 30.13 in 10.0 mi NW 11.5 mph 19.6 mph 0.01 in Rain Light Rain
8:53 PM 35.1 °F 27.9 °F 30.9 °F 85% 30.14 in 10.0 mi NNW 9.2 mph - 0.01 in Rain Light Rain
9:53 PM 34.0 °F 28.8 °F 30.0 °F 85% 30.18 in 10.0 mi NNW 5.8 mph - 0.00 in Rain Light Rain
9:55 PM 33.8 °F 28.6 °F 30.2 °F 87% 30.18 in 10.0 mi NW 5.8 mph - 0.00 in Rain Light Rain
10:48 PM 33.8 °F 25.8 °F 30.2 °F 87% 30.16 in 10.0 mi North 10.4 mph - 0.00 in   Overcast
10:53 PM 34.0 °F 26.0 °F 30.9 °F 89% 30.16 in 10.0 mi North 10.4 mph - 0.00 in   Overcast
11:53 PM 34.0 °F 27.2 °F 30.0 °F 85% 30.20 in 10.0 mi NNW 8.1 mph - 0.00 in   Overcast